Location: A�t �Alizem
(31.2076°N, 8.7872°W)
Time: 15:13:52
(UTC+00:00)

CZ-2C R/B - Pass Details

Date: 27 November 2020
Orbit: 705 x 907 km, 98.1° (Epoch: 25 January)

Event Time Altitude Azimuth Distance (km) Brightness Sun altitude
Rises 18:50:12 0° 151° (SSE) 3,320 6.2 -16.4°
Reaches altitude 10° 18:52:41 10° 145° (SE) 2,360 5.3 -16.9°
Maximum altitude 18:57:35 44° 74° (ENE) 1,058 3.2 -17.9°
Drops below altitude 10° 19:02:16 10° 3° (N) 2,256 5.3 -18.9°
Sets 19:04:35 0° 357° (N) 3,159 6.1 -19.4°
